Date String (YYYY-MM-DD hh:mm:ss) UTC,Instrument flags,absolute air pressure of the measurement (hPa),sample flow rate (lpm),inlet stack bypass flow (lpm),air temperature of the measurement (°C),ambient temperature measured by the external sensor (°C),aerosol sample conditioner tube jacket temperature (°C),OPC LED temperature (°C),internal box temperature (°C),relative humidity of the measurement (%),span deviation,mass concentration of particles derived from Lorenz-Mie calculation of OPC scattering (μg/m³),mass concentration of particles derived from Lorenz-Mie calculation of OPC scattering (μg/m³),mass concentration of particles derived from Lorenz-Mie calculation of OPC scattering (μg/m³)
DateTimeUTC,F1_M11,P_M11,Q1_M11,Q2_M11,T1_M11,T2_M11,T3_M11,T4_M11,T5_M11,U1_M11,ZSPAN_M11,X0_M11,X2_M11,X1_M11
2024-01-08 11:00:00,SystemResetWarning,0818.7,4.99,000.00,018.9,018.1,000.0,027.3,020.0,16.1,0000.0,0004.74,0003.49,0003.32
2024-01-08 11:01:00,SystemResetWarning,0818.7,4.99,000.00,018.9,018.1,000.0,027.3,020.0,16.2,0000.0,0004.94,0003.49,0003.31
2024-01-08 11:02:00,SystemResetWarning,0818.7,4.99,000.00,018.9,018.1,000.0,027.3,020.0,16.1,0000.0,0005.42,0003.48,0003.31
2024-01-08 11:03:00,SystemResetWarning,0818.7,4.99,000.00,018.9,018.0,000.0,027.3,020.0,16.1,0000.0,0005.39,0003.47,0003.30
2024-01-08 11:04:00,SystemResetWarning,0818.7,5.00,000.00,018.9,018.0,000.0,027.3,020.0,16.1,0000.0,0005.38,0003.47,0003.30
2024-01-08 11:05:00,SystemResetWarning,0818.7,5.01,000.00,018.9,018.0,000.0,027.3,020.1,16.1,0000.0,0005.20,0003.44,0003.30
2024-01-08 11:06:00,SystemResetWarning,0818.8,5.01,000.00,019.0,018.5,000.0,027.3,020.5,16.0,0000.0,0005.04,0003.41,0003.29
2024-01-08 11:07:00,SystemResetWarning,0818.9,5.00,000.00,019.1,019.2,000.0,027.3,020.9,15.9,0000.0,0004.93,0003.39,0003.28
2024-01-08 11:08:00,SystemResetWarning,0818.8,4.99,000.00,019.2,019.3,000.0,027.4,020.8,15.8,0000.0,0004.98,0003.39,0003.27
2024-01-08 11:09:00,SystemResetWarning,0818.8,4.99,000.00,019.2,019.1,000.0,027.4,020.4,15.8,0000.0,0005.02,0003.39,0003.27
2024-01-08 11:10:00,SystemResetWarning,0818.8,5.00,000.00,019.1,018.9,000.0,027.4,020.2,15.8,0000.0,0006.16,0003.40,0003.27
2024-01-08 11:11:00,SystemResetWarning,0818.8,5.01,000.00,019.1,018.7,000.0,027.3,020.0,15.9,0000.0,0006.77,0003.41,0003.27
2024-01-08 11:12:00,SystemResetWarning,0818.8,5.01,000.00,019.1,018.5,000.0,027.3,020.0,15.9,0000.0,0006.55,0003.40,0003.26
2024-01-08 11:13:00,SystemResetWarning,0818.8,5.00,000.00,019.0,018.4,000.0,027.4,020.0,15.9,0000.0,0005.55,0003.40,0003.26
2024-01-08 11:14:00,SystemResetWarning,0818.8,5.00,000.00,019.0,018.3,000.0,027.4,020.0,15.9,0000.0,0006.02,0003.39,0003.26
2024-01-08 11:15:00,SystemResetWarning,0818.8,4.99,000.00,019.0,018.2,000.0,027.4,020.0,15.9,0000.0,0006.07,0003.39,0003.25
2024-01-08 11:16:00,SystemResetWarning,0818.8,5.00,000.00,019.0,018.2,000.0,027.4,020.0,15.9,0000.0,0006.29,0003.39,0003.23
2024-01-08 11:17:00,SystemResetWarning,0819.3,5.01,000.00,019.0,018.1,000.0,027.4,020.0,15.9,0000.0,0006.44,0003.38,0003.21
2024-01-08 11:18:00,SystemResetWarning,0818.8,5.01,000.00,018.9,018.1,000.0,027.4,020.0,15.9,0000.0,0006.57,0003.39,0003.20
2024-01-08 11:19:00,SystemResetWarning,0819.1,5.00,000.00,019.0,018.3,000.0,027.4,020.4,15.9,0000.0,0006.49,0003.37,0003.19
2024-01-08 11:20:00,SystemResetWarning,0819.4,5.01,000.00,019.1,019.1,000.0,027.4,020.9,15.8,0000.0,0006.44,0003.36,0003.17
2024-01-08 11:21:00,SystemResetWarning,0818.9,4.99,000.00,019.3,019.5,000.0,027.4,021.0,15.6,0000.0,0005.33,0003.32,0003.15
2024-01-08 11:22:00,SystemResetWarning,0818.9,4.99,000.00,019.3,019.4,000.0,027.4,020.6,15.6,0000.0,0004.68,0003.28,0003.12
2024-01-08 11:23:00,SystemResetWarning,0819.2,4.99,000.00,019.2,019.1,000.0,027.4,020.4,15.6,0000.0,0004.91,0003.27,0003.09
2024-01-08 11:24:00,SystemResetWarning,0819.4,5.00,000.00,019.2,018.9,000.0,027.4,020.2,15.6,0000.0,0005.37,0003.24,0003.04
2024-01-08 11:25:00,SystemResetWarning,0819.1,5.01,000.00,019.2,018.7,000.0,027.4,020.1,15.6,0000.0,0005.10,0003.21,0002.96
2024-01-08 11:26:00,SystemResetWarning,0819.3,5.01,000.00,019.1,018.6,000.0,027.4,020.1,15.6,0000.0,0005.08,0003.17,0002.90
2024-01-08 11:27:00,SystemResetWarning,0819.2,5.00,000.00,019.1,018.5,000.0,027.4,020.1,15.6,0000.0,0005.16,0003.12,0002.84
2024-01-08 11:28:00,SystemResetWarning,0819.0,4.99,000.00,019.1,018.4,000.0,027.4,020.0,15.6,0000.0,0005.69,0003.08,0002.76
2024-01-08 11:29:00,SystemResetWarning,0819.1,4.99,000.00,019.1,018.3,000.0,027.4,020.0,15.6,0000.0,0006.55,0002.95,0002.66
2024-01-08 11:30:00,SystemResetWarning,0819.1,5.00,000.00,019.0,018.2,000.0,027.4,020.0,15.6,0000.0,0006.52,0002.85,0002.56
2024-01-08 11:31:00,SystemResetWarning,0818.9,5.01,000.00,019.0,018.2,000.0,027.4,020.0,15.6,0000.0,0006.47,0002.74,0002.44
2024-01-08 11:32:00,SystemResetWarning,0819.0,5.00,000.00,019.0,018.2,000.0,027.4,020.0,15.6,0000.0,0006.65,0002.66,0002.35
2024-01-08 11:33:00,SystemResetWarning,0819.2,5.00,000.00,019.0,018.1,000.0,027.4,020.0,15.5,0000.0,0007.77,0002.58,0002.26
2024-01-08 11:34:00,SystemResetWarning,0819.0,5.00,000.00,019.0,018.1,000.0,027.4,020.0,15.5,0000.0,0007.94,0002.47,0002.16
2024-01-08 11:35:00,SystemResetWarning,0819.0,5.00,000.00,018.9,018.1,000.0,027.4,020.0,15.5,0000.0,0007.69,0002.37,0002.08
2024-01-08 11:36:00,SystemResetWarning,0819.0,5.00,000.00,018.9,018.1,000.0,027.4,020.0,15.5,0000.0,0007.32,0002.27,0002.00
2024-01-08 11:37:00,SystemResetWarning,0819.0,5.00,000.00,018.9,018.1,000.0,027.4,020.0,15.5,0000.0,0007.41,0002.19,0001.93
2024-01-08 11:38:00,SystemResetWarning,0819.0,5.00,000.00,018.9,018.0,000.0,027.4,020.0,15.5,0000.0,0007.39,0002.13,0001.86
2024-01-08 11:39:00,SystemResetWarning,0819.1,5.00,000.00,018.9,018.0,000.0,027.4,020.0,15.5,0000.0,0006.77,0002.04,0001.80
2024-01-08 11:40:00,SystemResetWarning,0819.0,5.00,000.00,018.9,018.0,000.0,027.4,020.0,15.5,0000.0,0006.86,0002.03,0001.77
2024-01-08 11:41:00,SystemResetWarning,0819.2,5.00,000.00,018.9,018.0,000.0,027.4,020.0,15.4,0000.0,0006.96,0001.99,0001.74
2024-01-08 11:42:00,SystemResetWarning,0819.1,4.99,000.00,018.9,018.0,000.0,027.4,020.0,15.4,0000.0,0006.96,0001.96,0001.72
2024-01-08 11:43:00,SystemResetWarning,0819.1,5.00,000.00,018.9,018.0,000.0,027.4,020.0,15.4,0000.0,0006.79,0001.94,0001.69
2024-01-08 11:44:00,SystemResetWarning,0819.1,5.00,000.00,018.9,017.9,000.0,027.4,020.0,15.3,0000.0,0005.34,0001.93,0001.67
2024-01-08 11:45:00,SystemResetWarning,0819.1,5.00,000.00,018.9,017.9,000.0,027.3,020.0,15.3,0000.0,0004.76,0001.96,0001.65
2024-01-08 11:46:00,SystemResetWarning,0819.1,5.00,000.00,018.9,017.9,000.0,027.3,020.0,15.3,0000.0,0004.84,0001.97,0001.63
2024-01-08 11:47:00,SystemResetWarning,0819.2,5.00,000.00,018.9,017.9,000.0,027.3,020.0,15.3,0000.0,0004.90,0001.97,0001.61
2024-01-08 11:48:00,SystemResetWarning,0819.2,5.00,000.00,018.9,017.9,000.0,027.3,020.0,15.3,0000.0,0004.68,0001.95,0001.59
2024-01-08 11:49:00,SystemResetWarning,0819.2,5.00,000.00,018.9,017.9,000.0,027.3,020.0,15.3,0000.0,0004.52,0001.91,0001.56
2024-01-08 11:50:00,SystemResetWarning,0819.2,5.01,000.00,018.9,018.2,000.0,027.3,020.4,15.2,0000.0,0004.53,0001.91,0001.55
2024-01-08 11:51:00,SystemResetWarning,0819.3,5.01,000.00,019.0,018.9,000.0,027.4,020.8,15.1,0000.0,0003.57,0001.90,0001.53
2024-01-08 11:52:00,SystemResetWarning,0819.2,5.00,000.00,019.2,019.2,000.0,027.4,020.8,15.0,0000.0,0003.06,0001.91,0001.52
2024-01-08 11:53:00,SystemResetWarning,0819.3,4.99,000.00,019.2,019.1,000.0,027.4,020.5,15.0,0000.0,0003.08,0001.91,0001.51
2024-01-08 11:54:00,SystemResetWarning,0819.2,5.00,000.00,019.2,018.9,000.0,027.4,020.4,15.0,0000.0,0004.17,0001.90,0001.49
2024-01-08 11:55:00,SystemResetWarning,0819.3,5.01,000.00,019.2,018.8,000.0,027.4,020.3,15.0,0000.0,0004.38,0001.89,0001.48
2024-01-08 11:56:00,SystemResetWarning,0819.3,5.01,000.00,019.1,018.7,000.0,027.4,020.3,15.0,0000.0,0004.24,0001.83,0001.47
2024-01-08 11:57:00,SystemResetWarning,0819.3,4.99,000.00,019.1,018.6,000.0,027.4,020.2,15.0,0000.0,0004.16,0001.81,0001.47
2024-01-08 11:58:00,SystemResetWarning,0819.3,4.99,000.00,019.1,018.6,000.0,027.4,020.2,15.0,0000.0,0004.44,0001.79,0001.46
2024-01-08 11:59:00,SystemResetWarning,0819.3,5.00,000.00,019.1,018.5,000.0,027.4,020.2,15.0,0000.0,0004.63,0001.79,0001.46
